Location: �chenoz-la-M�line
(47.6009°N, 6.1354°E)
Time: 14:22:06
(UTC+00:00)

Cosmos 1980 - Pass Details

Date: 09 December 2021
Orbit: 837 x 849 km, 71.0° (Epoch: 20 January)

Event Time Altitude Azimuth Distance (km) Brightness Sun altitude
Rises 19:23:00 0° 335° (NNW) 3,417 7.2 -35.9°
Reaches altitude 10° 19:25:34 10° 342° (NNW) 2,480 6.3 -36.3°
Enters shadow 19:25:59 12° 343° (NNW) 2,332 6.2 -36.4°
